ATLAS 5 CENTAUR DEB, 44646

Orbit data source: Space-Track

ATLAS 5 CENTAUR DEB, 44646 is space debris in HEO originally from a launch on Wed, 17 Oct 2018 UTC launched from the Air Force Eastern Test Range (AFETR). Debris objects in space refer to the collection of defunct objects orbiting the Earth. Examples of debris include non-operational satellites, rocket bodies, and fragments generated from explosions, collisions, or faulty payload assembly.

Loading next visibility...
Identifier
44646, 2018-079G
Orbit
HEO
Country
Flag of USUS
Related business
Flag of USUnited Launch Alliance/Lockheed Martin (US)
Manufacturer
ULA Decatur
Mission
Spacecraft
Bus & Motor
Unknown
Mass
Unknown
Launch date (UTC)
2018-10-17 (8 years ago)
Launch vehicle
Unknown
Launch site
Air Force Eastern Test Range (AFETR)
Object type
Payload
Rocket body
Debris
Shape & HBR
Unknown shape, 1.1 m
Radar Cross Section
Medium (>0.1 m² and <1 m²)

Expand to show TLE details & history
Last TLE update: 4 days ago

TLE from 4 days ago
0 ATLAS 5 CENTAUR DEB
1 44646U 18079G   26232.94272327 -.00000151  00000-0  00000-0 0  9998
2 44646  13.8320  10.3469 4741607   0.4261 359.7526  1.85997602 53246
Epoch: 2026-08-20T22:37Z
TLE epoch observation values (Epoch: 2026-08-20T22:37:31.290Z)
Latitude
0.00003°
Longitude
61.70731°
Altitude
8,309.217 km
Speed
6.325 km/s
True Right ascension
00h 41m 26s
True Declination
0° 00' 00"
Sunlit
Object was in daylight at epoch
Visualization orbit readout
Latitude
Unknown
Longitude
Unknown
Altitude
Unknown
Speed
Unknown
Apparent Right ascension
Unknown
Apparent Declination
Unknown
Sunlit
N/A
Visualization observer readout
Local Sidereal Time
18:43:51
Azimuth
Unknown
Elevation
Unknown
Doppler factor
Unknown
Orbital elements
Apogee altitude
34,797.616 km
Perigee altitude
8,309.427 km
Semi-major axis
27,931.659 km
Eccentricity
0.47416
Inclination
13.832°
RAAN
10.3469°
Arg. of periapsis
0.4261°
True anomaly
359.21226°
Mean anomaly
359.7526°
Eccentric anomaly
359.52952°
Mean motion
0.46494 °/min
Orbital period
774.29 mins
BSTAR
0
Loading maneuver chart data...
Computing Atmospheric mass density...

Documentation

Showing up to 5 results
|